Weather History for Madison, WI

Change the Weather History Date:

Saturday, January 5, 2013

  Actual Average Record
Temperature  
Mean Temperature 23 °F 19 °F  
Max Temperature 36 °F 26 °F 51 °F (2012)
Min Temperature 10 °F 12 °F -27 °F (1884)
Degree Days  
Heating Degree Days 42 46  
Month to date heating degree days 240 230  
Since 1 July heating degree days 2835 3109  
Cooling Degree Days 0 0  
Month to date cooling degree days 0 0  
Year to date cooling degree days 0 0  
Moisture  
Dew Point 23 °F    
Average Humidity 83    
Maximum Humidity 96    
Minimum Humidity 69    
Precipitation  
Precipitation T in 0.05 in 1.11 in (1939)
Month to date precipitation T 0.21  
Year to date precipitation T 0.21  
Snow  
Snow T in 0.40 in 9.90 in (1929)
Month to date snowfall T 2.0  
Since 1 July snowfall 23.5 19.6  
Snow Depth 9.00 in    
Sea Level Pressure  
Sea Level Pressure 30.03 in    
Wind  
Wind Speed 7 mph (SSW)    
Max Wind Speed 16 mph    
Max Gust Speed 21 mph    
Visibility 8 miles    
Events Snow    
T = Trace of Precipitation, MM = Missing Value Source: NWS Daily Summary

Daily Weather History Graph

Daily Weather History Graph

Search for Another Location

Airport:

Trip Planner

Search our weather history database for the weather conditions in past years. The results will help you decide how hot, cold, wet, or windy it might be!

Date:

Astronomy

Jan. 05, 2013 Rise Set
Actual Time 7:29 AM CST 4:37 PM CST
Civil Twilight 6:57 AM CST 5:09 PM CST
Nautical Twilight 6:21 AM CST 5:44 PM CST
Astronomical Twilight 5:46 AM CST 6:19 PM CST
Moon 12:29 AM CST (1/5) 11:31 AM CST (1/5)
Length of Visible Light 10h 12m
Length of Day
9h 07m
Last Quarter, 44% of the Moon is Illuminated
Jan 5
Last Quarter
Jan 11
New
Jan 18
First Quarter
Jan 26
Full
Feb 3
Last Quarter

Hourly Weather History & Observations

Time (CST) Temp. Windchill Dew Point Humidity Pressure Visibility Wind Dir Wind Speed Gust Speed Precip Events Conditions
12:53 AM 16.0 °F - 12.9 °F 88% 30.19 in 7.0 mi Calm Calm - N/A   Clear
1:53 AM 14.0 °F 5.1 °F 12.0 °F 92% 30.21 in 8.0 mi SSW 5.8 mph - N/A   Clear
2:53 AM 19.0 °F - 14.0 °F 81% 30.22 in 9.0 mi Calm Calm - N/A   Clear
3:53 AM 15.1 °F - 12.0 °F 88% 30.21 in 6.0 mi Calm Calm - N/A   Clear
4:53 AM 12.9 °F - 10.0 °F 88% 30.18 in 5.0 mi Calm Calm - N/A   Clear
5:53 AM 17.1 °F 7.6 °F 14.0 °F 88% 30.17 in 6.0 mi South 6.9 mph - N/A   Clear
6:53 AM 18.0 °F 7.7 °F 14.0 °F 84% 30.18 in 7.0 mi South 8.1 mph - N/A   Clear
7:53 AM 16.0 °F 10.4 °F 14.0 °F 92% 30.16 in 4.0 mi SSE 3.5 mph - N/A   Clear
8:53 AM 18.0 °F 9.8 °F 16.0 °F 92% 30.14 in 5.0 mi South 5.8 mph - N/A   Clear
9:53 AM 24.1 °F 16.0 °F 19.0 °F 81% 30.14 in 5.0 mi South 6.9 mph - N/A   Haze
10:53 AM 28.0 °F 20.0 °F 21.9 °F 78% 30.12 in 6.0 mi South 8.1 mph - N/A   Haze
11:53 AM 28.9 °F 20.4 °F 21.9 °F 75% 30.07 in 6.0 mi SW 9.2 mph - N/A   Haze
12:53 PM 30.0 °F 21.7 °F 23.0 °F 75% 30.03 in 7.0 mi SSW 9.2 mph - N/A   Scattered Clouds
1:53 PM 30.9 °F 22.2 °F 24.1 °F 76% 30.00 in 10.0 mi SW 10.4 mph 17.3 mph N/A   Scattered Clouds
2:53 PM 33.1 °F 26.1 °F 25.0 °F 72% 29.99 in 10.0 mi SSW 8.1 mph - N/A   Clear
3:53 PM 33.1 °F 23.9 °F 26.1 °F 75% 29.97 in 10.0 mi South 12.7 mph - N/A   Overcast
4:53 PM 34.0 °F 28.0 °F 28.9 °F 82% 29.97 in 10.0 mi SSW 6.9 mph - N/A   Overcast
5:53 PM 34.0 °F 26.6 °F 30.0 °F 85% 29.96 in 6.0 mi South 9.2 mph - 0.00 in Snow Light Snow
6:17 PM 33.8 °F 27.0 °F 30.2 °F 87% 29.92 in 7.0 mi SSW 8.1 mph - 0.00 in Snow Light Snow
6:53 PM 34.0 °F 28.0 °F 30.9 °F 89% 29.95 in 6.0 mi SSW 6.9 mph - 0.00 in   Light Drizzle
7:53 PM 35.1 °F 29.3 °F 30.9 °F 85% 29.94 in 10.0 mi SW 6.9 mph - 0.00 in   Overcast
8:12 PM 35.6 °F 29.2 °F 30.2 °F 81% 29.89 in 10.0 mi SW 8.1 mph - N/A   Overcast
8:53 PM 36.0 °F 29.6 °F 30.9 °F 82% 29.93 in 10.0 mi SW 8.1 mph - N/A   Overcast
9:15 PM 35.6 °F 29.9 °F 30.2 °F 81% 29.89 in 10.0 mi SW 6.9 mph 16.1 mph N/A   Overcast
9:27 PM 35.6 °F 29.2 °F 30.2 °F 81% 29.89 in 10.0 mi SW 8.1 mph - N/A   Overcast
9:53 PM 36.0 °F 29.0 °F 30.9 °F 82% 29.91 in 10.0 mi SW 9.2 mph 18.4 mph N/A   Overcast
10:53 PM 36.0 °F 29.6 °F 30.0 °F 79% 29.90 in 10.0 mi WSW 8.1 mph - N/A   Overcast
11:38 PM 35.6 °F 31.7 °F 28.4 °F 75% 29.85 in 10.0 mi Variable 4.6 mph - N/A   Overcast
11:53 PM 35.1 °F 30.1 °F 28.9 °F 78% 29.89 in 10.0 mi Variable 5.8 mph - N/A   Overcast